Theta_e
319 319 319 318 319 319 318 316 317 317 317 317 317 317 318 318 318 318 318 319 318 318 321 322 320 322 316 310 310 326 346 344 333 322 313 309 318 319 314 317 319 318 321 325 328 331 332
319 319 319 318 319 318 318 317 316 317 317 317 317 318 318 318 318 318 318 318 317 317 322 323 321 322 310 303 316 328 332 331 323 318 313 313 323 325 318 318 316 320 321 321 324 324 330
319 319 318 318 318 318 318 317 316 316 316 316 317 317 317 318 317 317 317 316 316 317 322 325 324 320 313 310 319 316 315 324 324 317 311 319 325 323 320 315 320 318 310 312 316 316 323
320 320 318 318 318 318 318 317 317 316 316 316 317 317 317 317 316 316 316 315 316 318 323 323 324 318 312 325 315 315 313 315 325 320 314 317 324 323 317 318 316 307 305 301 310 314 319
320 319 319 318 318 318 317 317 317 316 316 316 316 316 316 316 316 315 314 314 317 319 325 324 317 314 312 318 309 312 313 316 321 319 317 320 317 315 315 307 303 304 295 299 305 312 315
320 320 319 318 318 317 317 317 316 316 316 316 316 315 315 315 314 313 313 315 319 317 322 323 320 309 314 308 307 312 312 314 317 316 314 312 313 308 306 300 295 299 297 299 300 307 311
321 320 318 318 318 318 317 317 316 316 316 316 316 315 315 314 313 312 310 308 309 307 311 311 308 312 308 309 311 311 313 310 314 313 307 312 303 300 303 305 305 305 304 301 303 307 306
321 319 318 318 318 317 317 316 315 315 316 316 315 314 314 313 312 312 309 304 306 305 299 308 310 309 308 305 304 309 313 306 309 305 310 305 302 308 311 309 307 304 302 302 305 308 302
321 319 318 318 317 317 316 316 315 315 315 315 315 314 313 312 311 311 307 309 313 309 298 304 306 304 304 303 303 306 310 310 308 306 307 302 305 312 309 307 304 303 300 302 302 306 306
321 319 318 317 317 316 316 315 315 315 315 314 314 314 312 311 308 310 310 312 312 310 291 300 300 303 304 303 300 309 307 303 305 303 304 303 310 309 305 304 305 296 306 306 304 300 293
320 319 317 317 316 316 315 315 315 315 314 314 314 313 311 309 304 306 310 312 311 305 285 302 300 307 304 299 301 302 309 303 298 300 300 300 304 305 304 305 306 301 307 304 303 298 294
319 318 317 316 316 316 315 315 314 314 313 313 313 312 310 311 308 310 315 312 309 291 287 298 302 299 298 299 301 305 303 303 305 301 301 300 306 303 303 307 307 308 303 302 299 295 289
318 317 316 316 316 315 315 314 314 313 313 312 311 309 307 311 308 314 312 308 292 288 301 296 296 299 298 296 299 300 298 295 292 287 289 296 299 303 305 300 304 302 295 288 287 288 289
317 316 316 315 315 315 314 314 314 313 312 311 308 307 311 312 314 315 309 299 290 299 297 301 300 299 296 299 297 299 296 293 298 295 291 288 289 297 302 298 298 299 295 289 284 285 290
317 316 316 315 315 313 314 314 313 313 312 310 307 313 311 315 316 313 303 293 293 297 300 299 300 296 295 299 298 297 294 294 297 297 289 290 291 301 303 303 301 297 295 298 291 293 291
316 316 316 315 314 314 314 314 313 312 311 309 306 310 313 315 316 309 300 296 298 301 302 301 295 298 294 297 296 293 294 299 299 301 298 293 287 296 300 301 301 298 300 291 291 285 286
316 316 315 315 314 314 314 314 313 312 310 309 309 309 313 315 313 305 297 299 301 303 303 298 296 295 295 295 295 294 295 298 301 300 300 292 289 291 296 292 293 295 293 293 292 291 289
316 315 315 315 314 314 315 314 313 311 309 310 311 304 313 314 303 305 298 299 299 301 303 300 300 298 295 296 294 293 294 297 302 300 294 296 290 286 291 299 300 297 294 295 289 289 292
315 315 315 314 314 315 314 314 312 311 310 306 306 309 314 312 297 298 301 300 299 298 298 297 297 298 298 293 290 295 296 300 301 299 295 295 289 283 287 291 294 294 296 296 293 291 289
315 315 314 314 314 314 315 314 312 312 311 307 308 301 306 307 304 299 298 297 296 302 299 298 297 298 294 292 295 292 295 299 301 300 305 298 288 286 283 288 292 291 294 296 291 287 290
314 314 314 314 314 315 315 314 313 311 311 309 309 300 303 296 297 299 299 297 295 294 299 299 298 295 293 288 291 291 294 295 298 302 299 294 286 289 291 293 293 292 293 294 292 291 286
314 314 314 314 314 315 315 315 314 312 310 312 303 302 304 300 302 298 297 295 293 294 296 294 294 295 295 289 291 289 292 291 291 296 293 295 288 290 289 293 293 291 294 295 295 295 293
314 314 313 314 314 315 315 315 314 312 311 311 312 312 306 300 299 296 294 295 295 298 299 299 297 295 293 295 297 297 297 295 294 291 291 292 289 286 282 291 291 287 291 293 295 297 295
313 313 313 313 313 314 315 315 315 314 312 312 313 311 305 297 298 296 298 298 298 298 296 299 300 295 299 303 301 299 298 296 296 294 294 290 289 290 283 288 279 290 297 297 296 297 299
313 312 312 313 313 314 315 316 316 315 314 312 316 312 307 297 300 300 300 299 300 301 298 299 300 302 303 299 292 290 291 292 294 296 295 293 291 284 282 283 287 290 295 296 293 293 302
313 312 312 312 313 314 315 315 316 316 314 315 317 318 312 304 299 304 301 301 296 296 298 299 305 304 301 295 293 287 285 287 286 290 296 295 293 289 286 281 279 291 297 301 298 287 302
312 312 312 312 313 313 314 315 316 317 315 313 316 319 313 306 306 306 300 300 303 299 295 299 300 298 302 293 289 286 285 290 283 284 286 288 289 286 286 283 287 296 299 301 287 288 300
312 312 312 311 312 313 314 314 315 317 316 313 317 320 312 307 308 310 309 304 303 302 295 299 298 298 295 290 288 288 285 287 286 288 289 287 285 286 286 283 279 298 298 291 294 297 298
311 311 311 311 312 313 314 314 315 316 316 314 315 321 320 311 309 314 314 314 311 308 302 302 298 298 297 294 291 290 286 288 287 283 291 285 289 286 287 288 295 295 294 296 297 295 296
Wind_Speed
17 17 17 18 17 17 18 20 20 20 21 22 22 23 23 24 24 24 23 21 19 17 15 10 6 4 3 4 10 9 12 10 8 6 11 13 9 13 12 10 14 16 14 16 16 17 20
16 17 17 18 18 18 19 20 21 21 22 23 23 22 22 23 24 24 23 21 20 16 14 7 3 3 3 5 3 14 13 11 10 11 10 12 10 12 10 14 12 12 14 14 11 9 7
16 17 18 18 18 18 18 19 20 20 21 22 22 22 22 23 25 25 24 22 21 16 12 7 5 5 7 15 5 3 8 10 10 10 9 14 16 13 8 9 12 15 10 12 9 5 5
16 16 17 17 17 17 18 19 19 19 19 21 22 23 23 24 25 24 23 23 21 17 10 2 4 5 8 7 5 5 8 10 12 9 11 12 14 16 9 9 13 8 8 7 9 8 11
15 15 16 16 17 17 18 18 19 20 20 21 23 23 23 24 25 24 23 26 23 14 8 4 4 5 8 2 4 9 4 9 12 7 10 15 14 10 8 5 6 7 7 8 11 14 7
15 15 15 16 17 17 17 18 19 20 21 22 23 24 25 25 26 24 26 25 8 4 7 8 9 6 8 9 4 3 5 8 8 10 11 12 9 6 5 2 8 8 8 9 9 12 13
14 15 17 17 17 18 18 18 19 20 21 22 23 25 25 25 27 21 15 6 1 1 5 8 5 7 4 8 5 7 6 5 6 7 9 6 3 8 9 10 10 14 15 13 11 12 8
13 14 16 16 16 18 19 19 19 21 21 23 24 25 25 26 27 25 5 3 5 5 9 13 19 13 5 4 4 6 5 6 5 8 6 6 11 9 10 13 12 17 16 16 14 14 9
11 13 13 14 15 16 18 20 20 21 22 23 24 25 25 26 29 11 6 10 6 6 4 9 8 7 7 5 8 8 6 8 7 8 10 10 11 18 15 13 15 15 12 13 12 19 14
10 12 12 14 15 16 17 18 20 21 22 23 24 25 24 27 5 7 6 2 6 5 3 5 7 3 4 1 5 10 3 3 4 9 10 10 16 15 16 16 14 9 10 12 14 10 5
11 11 12 14 15 16 18 19 20 21 22 23 24 25 23 12 8 6 6 8 5 3 3 10 7 2 4 7 5 3 6 4 7 11 4 8 11 12 16 13 15 12 10 9 10 9 5
12 13 14 15 17 18 19 20 21 21 22 24 25 24 23 1 4 11 13 9 4 2 6 6 6 6 5 6 3 6 5 3 6 7 9 9 11 6 7 12 11 6 7 11 7 2 5
13 14 15 16 18 19 19 21 21 22 22 24 25 27 15 8 5 8 7 5 2 4 9 5 8 7 9 7 6 4 3 5 3 2 5 6 10 11 11 9 6 6 4 3 5 5 10
14 14 14 16 19 20 20 21 22 22 23 24 28 27 7 9 9 10 5 3 4 14 12 7 6 5 4 7 1 6 6 4 7 6 6 4 10 8 4 6 6 7 7 6 8 5 9
14 14 16 17 18 20 22 20 22 22 24 23 27 3 3 7 12 6 2 3 6 10 13 14 11 2 2 8 4 7 5 6 5 9 4 7 6 18 14 16 13 9 7 8 6 9 7
15 16 17 18 19 21 22 21 22 24 26 21 5 4 6 5 3 2 2 5 8 13 9 9 5 7 6 11 5 4 1 8 6 8 8 8 6 6 15 15 10 10 5 3 4 7 12
15 16 17 18 19 20 21 21 22 24 26 26 2 3 2 4 2 2 1 5 6 12 9 8 8 6 9 9 9 10 7 14 13 13 12 5 3 10 9 4 9 13 3 4 2 3 11
16 17 18 18 19 20 20 20 20 22 28 8 5 1 4 3 2 3 4 4 8 12 12 9 4 6 10 11 8 8 9 10 13 9 6 9 4 5 14 19 17 15 13 9 5 9 5
16 17 19 19 19 19 20 20 19 18 15 6 6 2 5 10 5 5 2 14 12 10 12 9 10 10 7 5 5 8 9 12 13 9 5 7 5 5 10 10 2 7 12 13 2 3 9
16 17 18 19 19 19 20 20 19 18 11 3 4 4 5 9 9 12 8 8 10 13 12 11 7 7 9 9 10 4 6 7 9 9 10 6 3 4 6 11 10 13 22 22 11 6 10
16 17 18 19 19 19 19 20 20 22 18 3 2 3 6 6 6 9 12 12 12 10 9 9 6 13 10 6 8 7 12 11 13 10 4 4 4 8 14 17 17 17 19 23 20 11 3
16 16 17 17 18 18 18 20 21 23 27 1 4 4 4 4 2 13 11 9 11 10 7 9 10 11 8 4 5 9 7 7 5 7 4 1 5 7 13 17 19 20 18 19 22 19 11
15 16 16 16 17 17 18 19 21 22 21 4 4 5 2 4 11 7 6 4 3 3 7 8 5 3 7 10 11 12 11 9 9 8 9 1 3 3 5 10 16 16 14 16 20 19 11
14 15 16 16 16 15 16 17 19 18 14 4 2 3 3 5 6 4 3 4 9 5 1 4 6 4 6 11 11 11 12 12 10 11 8 7 5 4 4 4 6 7 16 17 19 20 16
13 14 15 14 15 15 15 15 17 17 18 4 5 5 4 4 7 7 8 7 6 3 4 3 8 3 6 8 4 7 4 5 4 7 9 6 2 2 4 5 9 12 5 11 11 8 17
12 13 13 13 13 13 14 13 15 15 16 4 5 5 3 3 5 10 2 8 5 6 4 5 3 2 6 5 3 3 3 4 5 9 6 10 6 5 2 4 6 6 7 11 8 3 18
11 12 12 12 11 11 12 11 14 14 13 5 3 6 3 3 3 5 3 2 1 2 2 2 3 4 4 2 2 4 3 2 3 5 7 6 3 6 7 6 5 15 14 4 7 6 15
10 11 10 10 10 9 9 8 11 12 11 7 2 4 3 4 4 8 5 4 5 2 1 3 1 3 4 4 3 2 2 2 2 4 6 4 4 4 5 6 6 20 11 8 8 14 13
9 9 9 9 9 9 8 7 10 11 10 8 3 3 1 3 4 2 7 2 1 2 1 2 2 2 2 2 2 1 0 2 2 2 5 1 3 3 3 6 11 10 11 11 13 13 15
Wind_Direction
356 354 352 350 348 347 346 347 346 343 341 340 340 338 335 334 333 331 329 327 323 320 316 317 295 280 258 227 254 161 177 171 177 195 207 215 251 250 216 235 247 247 253 264 275 158 183
350 348 347 347 346 343 342 342 342 341 339 337 335 335 333 331 330 329 328 325 320 318 315 313 261 187 242 252 135 154 167 164 205 194 208 220 241 248 227 242 252 256 253 259 268 251 169
345 346 346 344 342 339 337 338 338 337 336 333 332 333 332 329 329 328 326 322 314 310 304 322 203 222 258 245 333 273 182 190 197 185 217 226 248 271 265 282 255 274 299 303 278 275 244
342 341 339 338 338 336 334 334 333 332 332 329 329 331 330 328 326 326 323 315 305 297 284 297 187 231 258 234 247 234 240 241 177 193 217 244 245 260 266 278 288 300 293 274 285 250 257
334 335 337 336 336 333 332 331 331 331 330 329 327 329 328 326 324 326 321 308 294 275 235 209 220 232 270 145 226 222 229 222 171 214 201 242 257 252 290 285 313 283 255 264 265 267 244
331 333 335 335 332 331 330 330 330 331 330 329 326 328 326 325 323 329 323 300 277 281 210 216 260 277 265 236 115 324 214 275 180 178 209 233 247 218 266 204 231 253 257 234 243 253 243
331 334 335 333 330 328 331 331 330 329 329 327 326 326 324 323 321 328 338 343 157 164 241 232 254 237 307 111 139 228 160 246 225 189 210 218 238 217 227 245 254 269 279 287 278 246 239
326 330 332 328 330 330 328 330 330 328 327 326 325 323 323 321 318 317 278 245 47 266 297 271 259 255 290 359 263 145 147 221 192 203 185 240 228 240 222 240 235 254 269 281 288 288 184
325 326 328 327 330 332 331 329 328 327 325 323 323 322 322 321 315 296 219 281 283 285 262 279 223 218 222 189 261 151 177 241 195 215 208 220 234 223 237 241 244 247 244 270 277 301 310
336 327 329 331 331 330 330 328 327 325 322 322 321 321 324 327 312 335 269 284 335 56 298 244 148 217 105 296 284 111 24 349 274 236 224 227 230 251 224 235 247 257 262 259 268 291 277
341 341 337 334 331 332 332 330 326 324 322 322 320 321 323 311 301 301 345 326 344 8 297 141 120 82 199 193 149 122 68 325 273 292 280 257 223 245 245 251 218 250 279 282 283 287 310
347 346 343 337 335 335 332 329 326 324 324 321 319 320 334 73 207 248 292 315 321 267 232 135 131 176 172 243 218 134 189 202 303 306 317 297 310 287 260 275 261 269 251 275 297 325 295
352 349 345 339 335 334 333 329 327 324 324 321 318 316 320 289 251 310 324 317 249 246 140 139 162 162 204 183 202 133 263 192 222 187 267 276 265 277 293 315 281 262 292 312 303 290 253
350 345 343 340 335 333 333 330 328 326 325 325 319 314 252 236 263 298 334 301 268 348 17 40 41 59 338 1 20 143 172 279 296 265 301 293 315 215 256 224 261 252 205 178 226 231 263
347 344 345 341 337 336 330 333 328 328 327 330 317 266 238 242 233 255 312 262 48 7 11 356 326 261 255 233 169 37 328 350 302 33 41 4 286 339 325 333 234 256 264 239 238 275 280
345 343 342 339 338 333 333 334 333 331 329 334 318 278 245 299 108 248 279 29 70 57 345 342 338 6 355 6 349 175 217 23 27 66 62 344 336 336 337 333 327 184 234 319 293 222 260
341 342 340 339 338 334 333 334 337 333 331 325 240 275 12 296 217 269 21 101 40 48 31 15 6 354 356 351 352 343 350 54 24 8 7 41 48 299 335 314 335 338 293 297 255 234 241
340 341 340 339 338 336 334 335 340 337 336 3 317 274 302 268 297 232 52 39 17 26 17 5 354 9 28 3 358 346 346 36 34 29 21 9 297 320 292 296 303 299 287 238 184 279 244
341 340 341 340 338 337 334 337 342 339 4 326 311 270 33 2 19 17 97 95 64 28 30 13 12 19 358 348 355 356 3 2 53 27 52 352 328 346 320 321 323 327 330 310 261 310 265
340 341 343 338 338 338 339 339 341 333 334 315 296 9 3 45 16 33 353 39 74 46 36 11 45 26 23 353 346 314 334 12 35 67 23 1 288 267 260 288 330 317 319 322 311 240 269
339 341 344 342 340 340 344 338 340 332 329 262 240 52 65 28 17 56 39 26 39 21 354 45 24 30 26 13 332 4 357 349 341 2 45 38 287 304 296 295 304 299 302 306 306 292 250
338 342 344 341 341 343 344 341 345 337 330 263 42 14 12 2 37 70 30 20 30 11 346 12 23 3 2 342 314 320 326 327 330 341 335 344 314 330 298 298 297 284 279 287 291 290 296
336 341 344 343 342 347 347 344 348 350 345 21 355 1 268 11 50 51 42 36 354 54 315 20 50 29 316 358 340 314 302 293 294 286 293 144 162 356 276 311 312 287 269 279 280 285 281
337 341 344 345 344 350 347 346 349 351 5 278 23 297 314 82 90 86 53 337 1 37 326 335 18 31 352 324 302 281 258 251 248 254 258 260 187 154 286 290 274 266 322 290 283 288 318
339 339 343 344 343 351 347 348 348 349 3 343 10 355 351 62 52 40 27 28 321 356 203 30 54 8 323 308 306 327 59 29 302 296 277 267 213 248 184 219 268 288 301 16 3 320 29
337 339 340 341 340 354 341 349 346 345 360 338 50 346 339 328 23 354 9 57 5 344 87 51 66 69 1 357 8 347 27 359 341 343 42 10 24 159 333 254 255 62 332 313 340 257 8
334 335 338 337 338 351 336 351 342 340 3 348 338 28 287 326 77 71 55 328 5 40 229 22 348 353 38 42 338 32 36 260 339 321 342 312 306 246 221 240 283 344 327 292 277 337 345
330 331 337 330 334 341 327 347 333 333 5 359 321 54 0 326 16 4 37 18 349 284 41 12 312 20 21 57 8 45 30 15 340 305 324 324 336 329 302 218 259 4 14 9 326 316 320
326 326 334 323 334 329 327 346 328 328 354 357 296 98 146 262 325 279 306 38 164 113 330 58 133 85 75 81 83 106 352 14 329 292 339 65 75 297 269 295 6 2 318 343 352 333 319